User: anonymous   Login
Location: Unspecified
(0.0000°N, 0.0000°E)
Time: 01:48:54
(UTC+00:00)
Language:

TBA - TO BE ASSIGNED - Orbit

View from above orbital plane
View from above orbital plane
View from above satellite
View from above satellite

Ground track
Ground track

The orbit is defined by the following mean orbital elements,

1 69080U          26145.61695656 +.00000000 +00000-0 +44177-4 0 00005
2 69080  88.9868 344.1993 0004272 153.1706 206.9706 14.19321556    00
Epoch (UTC): 25 May 2026 14:48:25
Eccentricity: 0.0004272
inclination: 88.9868°
perigee height: 825 km
apogee height: 831 km
right ascension of ascending node: 344.1993°
argument of perigee: 153.1706°
revolutions per day: 14.19321556
mean anomaly at epoch: 206.9706°

The dashed part of the orbit path shows where the satellite is in the earth's shadow,  

DLR